GW5293 Weather Reports


Display with metric or nautical units.
time (UTC)temp
F
wind
direction
speed
MPH
gust
MPH
rain 1hr
in
rain 24hr
in
rain mn
in
humidity
%
barometer
mb
20260508204108 73 75 2.0 3.0 0.00 0.00 0.00 34 1012.0
20260508203607 74 295 2.0 4.0 0.00 0.00 0.00 30 1011.0
20260508203107 74 334 3.0 3.0 0.00 0.00 0.00 30 1012.0
20260508202606 73 273 0.0 2.0 0.00 0.00 0.00 36 1011.0
20260508202106 72 205 0.0 0.0 0.00 0.00 0.00 38 1011.0
20260508201606 73 71 3.0 3.0 0.00 0.00 0.00 33 1012.0
20260508201105 72 130 2.0 3.0 0.00 0.00 0.00 36 1012.0
20260508200604 71 65 3.0 4.0 0.00 0.00 0.00 37 1012.0
20260508200104 72 50 3.0 6.0 0.00 0.00 0.00 32 1012.0
20260508195604 73 304 0.0 2.0 0.00 0.00 0.00 37 1012.0
20260508195103 73 332 2.0 5.0 0.00 0.00 0.00 32 1012.0
20260508194602 72 28 2.0 4.0 0.00 0.00 0.00 32 1012.0
20260508194102 72 269 2.0 3.0 0.00 0.00 0.00 33 1013.0
20260508193601 73 65 0.0 2.0 0.00 0.00 0.00 37 1013.0
20260508193101 73 15 2.0 2.0 0.00 0.00 0.00 43 1013.0
20260508192600 72 28 0.0 2.0 0.00 0.00 0.00 33 1013.0
20260508192100 72 103 5.0 6.0 0.00 0.00 0.00 36 1013.0
20260508191559 72 183 2.0 3.0 0.00 0.00 0.00 35 1013.0
20260508191059 72 35 4.0 4.0 0.00 0.00 0.00 37 1013.0
20260508190558 72 93 2.0 3.0 0.00 0.00 0.00 29 1013.0
20260508190058 71 250 0.0 0.0 0.00 0.00 0.00 38 1013.0
20260508185558 72 306 2.0 3.0 0.00 0.00 0.00 36 1013.0
20260508185057 72 323 0.0 4.0 0.00 0.00 0.00 31 1013.0
20260508184557 72 92 4.0 5.0 0.00 0.00 0.00 32 1013.0
20260508184056 72 260 2.0 3.0 0.00 0.00 0.00 33 1014.0
20260508183555 72 320 0.0 2.0 0.00 0.00 0.00 42 1014.0
20260508183055 71 28 2.0 2.0 0.00 0.00 0.00 38 1014.0
20260508182554 70 42 4.0 4.0 0.00 0.00 0.00 37 1014.0
20260508182054 72 44 4.0 4.0 0.00 0.00 0.00 32 1014.0
20260508181553 73 273 2.0 5.0 0.00 0.00 0.00 35 1014.0
20260508181053 72 304 2.0 3.0 0.00 0.00 0.00 43 1014.0
20260508180552 72 172 3.0 3.0 0.00 0.00 0.00 38 1014.0
20260508180052 71 277 2.0 3.0 0.00 0.00 0.00 33 1014.0
20260508175551 72 288 2.0 3.0 0.00 0.00 0.00 34 1014.0
20260508175051 72 336 0.0 2.0 0.00 0.00 0.00 40 1014.0
20260508174551 72 11 2.0 2.0 0.00 0.00 0.00 28 1014.0
20260508174050 72 265 2.0 2.0 0.00 0.00 0.00 35 1014.0
20260508173549 72 321 0.0 2.0 0.00 0.00 0.00 36 1014.0
20260508173049 70 123 2.0 2.0 0.00 0.00 0.00 29 1014.0
20260508172548 71 293 3.0 4.0 0.00 0.00 0.00 27 1015.0
20260508172048 71 207 0.0 0.0 0.00 0.00 0.00 34 1014.0
20260508171547 70 57 0.0 2.0 0.00 0.00 0.00 35 1015.0
20260508171047 69 61 3.0 3.0 0.00 0.00 0.00 38 1015.0
20260508170546 69 47 3.0 3.0 0.00 0.00 0.00 42 1015.0
20260508170046 69 189 2.0 3.0 0.00 0.00 0.00 43 1015.0
20260508165545 69 178 3.0 4.0 0.00 0.00 0.00 42 1015.0
20260508165045 70 99 3.0 5.0 0.00 0.00 0.00 40 1015.0
20260508164544 70 88 4.0 5.0 0.00 0.00 0.00 35 1015.0
20260508164044 70 169 2.0 3.0 0.00 0.00 0.00 37 1015.0
20260508163543 69 275 2.0 2.0 0.00 0.00 0.00 46 1015.0
20260508163043 67 306 0.0 2.0 0.00 0.00 0.00 45 1016.0
20260508162542 69 82 3.0 3.0 0.00 0.00 0.00 36 1016.0
20260508162042 70 88 4.0 4.0 0.00 0.00 0.00 42 1016.0
20260508161541 71 283 2.0 2.0 0.00 0.00 0.00 41 1016.0
20260508161041 70 269 0.0 0.0 0.00 0.00 0.00 43 1016.0
20260508160540 70 144 2.0 3.0 0.00 0.00 0.00 43 1016.0
20260508160040 68 171 2.0 2.0 0.00 0.00 0.00 47 1016.0
20260508155539 67 190 0.0 0.0 0.00 0.00 0.00 48 1016.0
20260508155038 68 305 5.0 6.0 0.00 0.00 0.00 40 1016.0
20260508154538 70 114 2.0 3.0 0.00 0.00 0.00 42 1016.0
20260508154038 70 159 2.0 2.0 0.00 0.00 0.00 41 1016.0
20260508153537 69 25 2.0 2.0 0.00 0.00 0.00 45 1016.0
20260508153037 67 328 2.0 2.0 0.00 0.00 0.00 49 1016.0
20260508152536 68 171 2.0 3.0 0.00 0.00 0.00 46 1016.0
20260508152036 67 252 2.0 3.0 0.00 0.00 0.00 41 1016.0
20260508151535 67 160 4.0 4.0 0.00 0.00 0.00 42 1016.0
20260508151035 66 9 2.0 2.0 0.00 0.00 0.00 36 1016.0
20260508150534 65 107 3.0 3.0 0.00 0.00 0.00 41 1016.0
20260508150033 66 23 3.0 3.0 0.00 0.00 0.00 44 1016.0
20260508145533 66 155 2.0 3.0 0.00 0.00 0.00 45 1016.0
20260508145032 67 38 3.0 4.0 0.00 0.00 0.00 48 1016.0
20260508144531 64 91 2.0 3.0 0.00 0.00 0.00 48 1016.0
20260508144031 63 338 4.0 5.0 0.00 0.00 0.00 49 1016.0
20260508143531 63 4 4.0 5.0 0.00 0.00 0.00 54 1016.0
20260508143030 64 82 4.0 4.0 0.00 0.00 0.00 58 1016.0
20260508142530 63 57 0.0 2.0 0.00 0.00 0.00 56 1016.0
20260508142029 63 99 2.0 2.0 0.00 0.00 0.00 61 1016.0
20260508141529 63 7 3.0 3.0 0.00 0.00 0.00 59 1017.0
20260508141029 64 48 4.0 5.0 0.00 0.00 0.00 59 1016.0
20260508140528 64 133 2.0 2.0 0.00 0.00 0.00 60 1016.0
20260508140028 63 146 2.0 3.0 0.00 0.00 0.00 64 1016.0
20260508135527 61 3.0 3.0 0.00 0.00 0.00 65 1016.0
20260508135027 61 64 0.0 2.0 0.00 0.00 0.00 67 1017.0
20260508134526 61 85 4.0 5.0 0.00 0.00 0.00 68 1016.0
20260508134026 60 249 2.0 3.0 0.00 0.00 0.00 66 1016.0
20260508133526 59 88 2.0 3.0 0.00 0.00 0.00 68 1016.0
20260508133025 58 86 3.0 3.0 0.00 0.00 0.00 74 1016.0
20260508132525 57 343 0.0 4.0 0.00 0.00 0.00 75 1016.0
20260508132024 56 92 3.0 3.0 0.00 0.00 0.00 76 1016.0
20260508131524 55 75 3.0 4.0 0.00 0.00 0.00 77 1016.0
20260508131023 56 336 3.0 4.0 0.00 0.00 0.00 76 1016.0
20260508130522 55 145 0.0 2.0 0.00 0.00 0.00 79 1016.0
20260508130022 54 73 4.0 4.0 0.00 0.00 0.00 83 1016.0
20260508125521 53 337 2.0 2.0 0.00 0.00 0.00 82 1016.0
20260508125021 52 21 2.0 3.0 0.00 0.00 0.00 83 1016.0
20260508124520 51 5 4.0 5.0 0.00 0.00 0.00 82 1016.0
20260508124020 50 35 3.0 3.0 0.00 0.00 0.00 87 1016.0
20260508123520 49 25 3.0 3.0 0.00 0.00 0.00 88 1016.0
20260508123019 48 89 0.0 2.0 0.00 0.00 0.00 94 1016.0
20260508122518 46 56 2.0 3.0 0.00 0.00 0.00 98 1016.0
20260508122018 45 38 3.0 3.0 0.00 0.00 0.00 98 1016.0
20260508121517 45 75 3.0 3.0 0.00 0.00 0.00 98 1016.0
20260508121017 45 48 3.0 3.0 0.00 0.00 0.00 98 1016.0
20260508120517 44 85 2.0 3.0 0.00 0.00 0.00 98 1016.0
20260508120016 44 77 2.0 2.0 0.00 0.00 0.00 98 1016.0
20260508115516 44 103 3.0 3.0 0.00 0.00 0.00 98 1016.0
20260508115015 44 133 2.0 3.0 0.00 0.00 0.00 98 1016.0
20260508114515 44 123 3.0 3.0 0.00 0.00 0.00 98 1016.0
20260508114015 43 118 3.0 3.0 0.00 0.00 0.00 98 1016.0
20260508113514 43 94 2.0 3.0 0.00 0.00 0.00 98 1016.0
20260508113014 43 92 2.0 2.0 0.00 0.00 0.00 98 1016.0
20260508112513 43 33 2.0 2.0 0.00 0.00 0.00 98 1016.0
20260508112013 43 66 0.0 3.0 0.00 0.00 0.00 98 1015.0
20260508111513 42 82 2.0 3.0 0.00 0.00 0.00 98 1016.0
20260508111012 42 70 2.0 3.0 0.00 0.00 0.00 98 1015.0
20260508110512 42 71 2.0 3.0 0.00 0.00 0.00 98 1015.0
20260508110011 43 72 0.0 2.0 0.00 0.00 0.00 98 1015.0
20260508105510 43 66 2.0 2.0 0.00 0.00 0.00 98 1015.0
20260508105010 43 161 2.0 2.0 0.00 0.00 0.00 98 1015.0
20260508104510 43 237 0.0 2.0 0.00 0.00 0.00 98 1015.0
20260508104009 43 115 0.0 2.0 0.00 0.00 0.00 98 1015.0
20260508103509 43 48 2.0 2.0 0.00 0.00 0.00 98 1015.0
20260508103008 43 51 0.0 3.0 0.00 0.00 0.00 98 1015.0
20260508102508 43 84 2.0 2.0 0.00 0.00 0.00 98 1015.0
20260508102007 43 88 2.0 3.0 0.00 0.00 0.00 98 1015.0
20260508101507 43 110 2.0 3.0 0.00 0.00 0.00 98 1015.0
20260508101006 43 75 2.0 2.0 0.00 0.00 0.00 97 1015.0
20260508100506 43 79 2.0 3.0 0.00 0.00 0.00 97 1015.0
20260508100005 43 105 2.0 3.0 0.00 0.00 0.00 97 1015.0
20260508095505 44 61 2.0 2.0 0.00 0.00 0.00 97 1015.0
20260508095004 44 82 2.0 2.0 0.00 0.00 0.00 98 1015.0
20260508094504 44 47 4.0 4.0 0.00 0.00 0.00 98 1015.0
20260508094004 44 81 2.0 2.0 0.00 0.00 0.00 97 1015.0
20260508093503 44 85 2.0 3.0 0.00 0.00 0.00 98 1015.0
20260508093003 44 23 2.0 3.0 0.00 0.00 0.00 98 1015.0
20260508092503 44 21 3.0 4.0 0.00 0.00 0.00 98 1015.0
20260508092002 44 67 2.0 3.0 0.00 0.00 0.00 97 1015.0
20260508091502 44 71 2.0 2.0 0.00 0.00 0.00 97 1014.0
20260508091001 44 68 2.0 3.0 0.00 0.00 0.00 97 1014.0
20260508090501 44 87 2.0 3.0 0.00 0.00 0.00 97 1014.0
20260508090000 44 63 2.0 3.0 0.00 0.00 0.00 97 1014.0
20260508085500 44 39 3.0 3.0 0.00 0.00 0.00 97 1015.0
20260508084959 44 79 3.0 3.0 0.00 0.00 0.00 97 1014.0
20260508084459 44 84 2.0 2.0 0.00 0.00 0.00 96 1014.0
20260508083958 44 89 2.0 3.0 0.00 0.00 0.00 96 1015.0
20260508083457 44 102 3.0 3.0 0.00 0.00 0.00 96 1014.0
20260508082957 45 95 2.0 3.0 0.00 0.00 0.00 96 1014.0
20260508082457 44 81 0.0 3.0 0.00 0.00 0.00 95 1014.0
20260508081956 45 335 2.0 2.0 0.00 0.00 0.00 95 1014.0
20260508081456 45 79 3.0 3.0 0.00 0.00 0.00 95 1014.0
20260508080955 45 73 2.0 3.0 0.00 0.00 0.00 95 1014.0
20260508080455 45 35 3.0 4.0 0.00 0.00 0.00 95 1014.0
20260508075955 45 68 3.0 4.0 0.00 0.00 0.00 95 1014.0
20260508075454 45 112 3.0 3.0 0.00 0.00 0.00 95 1014.0
20260508074954 45 97 2.0 2.0 0.00 0.00 0.00 94 1014.0
20260508074453 45 69 2.0 3.0 0.00 0.00 0.00 94 1015.0
20260508073953 46 101 2.0 3.0 0.00 0.00 0.00 94 1014.0
20260508073452 46 111 2.0 4.0 0.00 0.00 0.00 94 1015.0
20260508072952 46 95 0.0 3.0 0.00 0.00 0.00 93 1015.0
20260508072451 45 127 2.0 2.0 0.00 0.00 0.00 92 1015.0
20260508071951 46 44 3.0 5.0 0.00 0.00 0.00 92 1015.0
20260508071450 46 177 3.0 4.0 0.00 0.00 0.00 92 1015.0
20260508070950 46 95 2.0 3.0 0.00 0.00 0.00 93 1014.0
20260508070449 46 104 3.0 4.0 0.00 0.00 0.00 93 1014.0
20260508065949 47 219 2.0 2.0 0.00 0.00 0.00 93 1015.0
20260508065448 47 87 2.0 3.0 0.00 0.00 0.00 94 1015.0
20260508064947 47 62 3.0 4.0 0.00 0.00 0.00 93 1015.0
20260508064447 47 72 3.0 4.0 0.00 0.00 0.00 93 1014.0
20260508063947 47 63 3.0 4.0 0.00 0.00 0.00 93 1015.0
20260508063446 48 45 3.0 3.0 0.00 0.00 0.00 93 1014.0
20260508062946 48 70 2.0 3.0 0.00 0.00 0.00 92 1014.0
20260508062446 48 40 2.0 3.0 0.00 0.00 0.00 92 1014.0
20260508061945 48 91 3.0 3.0 0.00 0.00 0.00 92 1014.0
20260508061445 48 97 3.0 4.0 0.00 0.00 0.00 90 1015.0
20260508060944 48 154 0.0 0.0 0.00 0.00 0.00 87 1014.0
20260508060444 48 110 3.0 3.0 0.00 0.00 0.00 86 1015.0
20260508055944 48 53 2.0 3.0 0.00 0.00 0.00 85 1015.0
20260508055443 48 22 2.0 3.0 0.00 0.00 0.00 86 1015.0
20260508054942 48 67 3.0 3.0 0.00 0.00 0.00 87 1014.0
20260508054441 48 72 3.0 4.0 0.00 0.00 0.00 89 1015.0
20260508053941 48 46 5.0 6.0 0.00 0.00 0.00 88 1015.0
20260508053440 48 48 2.0 3.0 0.00 0.00 0.00 89 1015.0
20260508052940 48 93 3.0 3.0 0.00 0.00 0.00 87 1015.0
20260508052439 48 77 2.0 3.0 0.00 0.00 0.00 88 1015.0
20260508051939 48 88 3.0 3.0 0.00 0.00 0.00 88 1015.0
20260508051438 48 161 2.0 3.0 0.00 0.00 0.00 87 1015.0
20260508050937 49 97 0.0 2.0 0.00 0.00 0.00 84 1015.0
20260508050437 49 125 3.0 3.0 0.00 0.00 0.00 84 1015.0
20260508045936 49 124 2.0 2.0 0.00 0.00 0.00 84 1015.0
20260508045435 50 108 2.0 2.0 0.00 0.00 0.00 85 1015.0
20260508044935 50 69 0.0 2.0 0.00 0.00 0.00 84 1014.0
20260508044434 50 224 0.0 0.0 0.00 0.00 0.00 85 1014.0
20260508043934 49 142 0.0 0.0 0.00 0.00 0.00 84 1015.0
20260508043433 49 76 2.0 2.0 0.00 0.00 0.00 87 1014.0
20260508042933 49 82 2.0 2.0 0.00 0.00 0.00 87 1014.0
20260508042432 49 89 0.0 2.0 0.00 0.00 0.00 87 1014.0
20260508041932 50 76 0.0 2.0 0.00 0.00 0.00 85 1014.0
20260508041431 50 115 2.0 2.0 0.00 0.00 0.00 85 1014.0
20260508040931 50 91 2.0 2.0 0.00 0.00 0.00 84 1014.0
20260508040431 50 104 2.0 2.0 0.00 0.00 0.00 85 1014.0
20260508035931 50 111 2.0 2.0 0.00 0.00 0.14 84 1014.0
20260508035430 50 66 2.0 2.0 0.00 0.00 0.14 85 1014.0
20260508034929 51 135 0.0 2.0 0.00 0.00 0.14 83 1014.0
20260508034429 51 64 2.0 2.0 0.00 0.00 0.14 82 1014.0
20260508033928 51 43 2.0 2.0 0.00 0.00 0.14 78 1014.0
20260508033428 51 92 2.0 2.0 0.00 0.00 0.14 77 1014.0
20260508032927 52 101 2.0 2.0 0.00 0.00 0.14 78 1014.0
20260508032427 52 71 0.0 2.0 0.00 0.00 0.14 78 1014.0
20260508031926 52 55 2.0 3.0 0.00 0.00 0.14 79 1014.0
20260508031426 53 83 2.0 2.0 0.00 0.00 0.14 79 1014.0
20260508030925 53 114 2.0 2.0 0.00 0.00 0.14 77 1014.0
20260508030425 53 60 2.0 2.0 0.00 0.00 0.14 76 1014.0
20260508025924 54 96 2.0 2.0 0.00 0.00 0.14 75 1014.0
20260508025424 54 82 2.0 2.0 0.00 0.00 0.14 75 1014.0
20260508024924 54 135 0.0 0.0 0.00 0.00 0.14 75 1014.0
20260508024423 55 135 0.0 0.0 0.00 0.00 0.14 74 1014.0
20260508023922 55 135 0.0 0.0 0.00 0.00 0.14 73 1014.0
20260508023422 55 130 0.0 0.0 0.00 0.00 0.14 73 1014.0
20260508022921 55 222 0.0 0.0 0.00 0.00 0.14 77 1014.0
20260508022421 55 229 0.0 2.0 0.00 0.00 0.14 87 1014.0
20260508021920 55 253 0.0 2.0 0.00 0.00 0.14 88 1014.0
20260508021420 55 217 0.0 0.0 0.00 0.00 0.14 85 1014.0
20260508020919 55 84 0.0 2.0 0.00 0.00 0.14 84 1014.0
20260508020418 55 86 0.0 2.0 0.00 0.00 0.14 84 1014.0
20260508015918 55 84 2.0 2.0 0.00 0.00 0.14 86 1013.0
20260508015418 55 66 0.0 2.0 0.00 0.00 0.14 85 1013.0
20260508014917 55 99 0.0 2.0 0.00 0.00 0.14 87 1013.0
20260508014417 55 106 2.0 2.0 0.00 0.00 0.14 79 1013.0
20260508013917 55 112 0.0 2.0 0.00 0.00 0.14 82 1013.0
20260508013416 55 102 2.0 2.0 0.00 0.00 0.14 81 1013.0
20260508012916 56 50 0.0 0.0 0.00 0.00 0.14 83 1013.0
20260508012415 56 242 0.0 0.0 0.00 0.00 0.14 85 1013.0
20260508011915 55 224 0.0 0.0 0.00 0.00 0.14 84 1013.0
20260508011414 56 70 0.0 2.0 0.00 0.00 0.14 83 1012.0
20260508010914 56 93 0.0 2.0 0.00 0.00 0.14 82 1012.0
20260508010413 56 60 0.0 2.0 0.00 0.00 0.14 80 1013.0
20260508005912 57 78 0.0 2.0 0.00 0.00 0.14 83 1012.0
20260508005412 57 269 0.0 0.0 0.00 0.00 0.14 81 1012.0
20260508004911 57 205 0.0 0.0 0.00 0.00 0.14 82 1012.0
20260508004411 57 113 0.0 0.0 0.00 0.00 0.14 82 1012.0
20260508003910 58 113 0.0 0.0 0.00 0.00 0.14 80 1012.0
20260508003410 58 129 0.0 0.0 0.00 0.00 0.14 79 1012.0
20260508002910 58 135 0.0 0.0 0.00 0.00 0.14 78 1012.0
20260508002409 58 224 0.0 0.0 0.00 0.00 0.14 80 1012.0
20260508001908 58 251 0.0 2.0 0.00 0.00 0.14 82 1012.0
20260508001408 59 243 2.0 2.0 0.00 0.00 0.14 78 1012.0
20260508000907 59 89 0.0 0.0 0.00 0.00 0.14 75 1012.0
20260508000407 59 238 0.0 0.0 0.00 0.00 0.14 75 1012.0
20260507235906 60 142 0.0 0.0 0.00 0.00 0.14 73 1012.0
20260507235406 60 76 0.0 2.0 0.00 0.00 0.14 75 1012.0
20260507234905 60 127 2.0 2.0 0.00 0.00 0.14 73 1012.0
20260507234404 61 43 2.0 3.0 0.00 0.00 0.14 71 1012.0
20260507233904 61 44 0.0 0.0 0.00 0.00 0.14 69 1012.0
20260507233403 61 269 0.0 0.0 0.00 0.00 0.14 67 1012.0
20260507232902 61 89 0.0 0.0 0.00 0.00 0.14 65 1012.0
20260507232402 61 62 0.0 0.0 0.00 0.00 0.14 66 1012.0
20260507231901 61 44 0.0 0.0 0.00 0.00 0.14 68 1012.0
20260507231401 61 297 0.0 0.0 0.00 0.00 0.14 64 1012.0
20260507230900 62 224 0.0 0.0 0.00 0.00 0.14 68 1012.0
20260507230359 62 269 0.0 0.0 0.00 0.00 0.14 64 1012.0
20260507225859 62 236 2.0 2.0 0.00 0.00 0.14 64 1012.0
20260507225359 62 76 2.0 2.0 0.00 0.00 0.14 66 1012.0
20260507224858 62 95 0.0 2.0 0.00 0.00 0.14 65 1012.0
20260507224358 62 96 0.0 2.0 0.00 0.00 0.14 65 1012.0
20260507223857 62 73 2.0 2.0 0.00 0.00 0.14 64 1012.0
20260507223357 63 230 0.0 0.0 0.00 0.00 0.14 64 1012.0
20260507222856 63 62 0.0 0.0 0.00 0.00 0.14 63 1012.0
20260507222355 63 269 0.0 0.0 0.00 0.00 0.14 61 1012.0
20260507221854 64 315 0.0 0.0 0.00 0.00 0.14 61 1012.0
20260507221354 64 37 0.0 0.0 0.00 0.00 0.14 62 1012.0
20260507220854 65 75 0.0 0.0 0.00 0.00 0.14 61 1012.0
20260507220353 65 50 0.0 0.0 0.00 0.00 0.14 61 1012.0
20260507215852 65 38 0.0 0.0 0.00 0.00 0.14 63 1012.0
20260507215352 65 160 3.0 3.0 0.00 0.00 0.14 64 1012.0
20260507214851 64 135 2.0 3.0 0.00 0.00 0.14 60 1012.0
20260507214350 65 28 2.0 2.0 0.00 0.00 0.14 58 1012.0
20260507213850 65 85 3.0 4.0 0.00 0.00 0.14 55 1012.0
20260507213349 66 231 0.0 2.0 0.00 0.00 0.14 55 1012.0
20260507212849 66 249 4.0 5.0 0.00 0.00 0.14 51 1012.0
20260507212348 66 302 0.0 2.0 0.00 0.00 0.14 56 1012.0
20260507211848 65 321 2.0 3.0 0.00 0.00 0.14 55 1012.0
20260507211347 64 157 0.0 0.0 0.00 0.00 0.14 67 1011.0
20260507210847 63 25 0.0 0.0 0.00 0.00 0.14 69 1011.0
20260507210346 63 283 0.0 0.0 0.00 0.00 0.14 67 1011.0
20260507205846 62 96 0.0 2.0 0.00 0.00 0.14 68 1011.0
20260507205345 63 271 3.0 3.0 0.00 0.00 0.14 64 1011.0
20260507204845 63 116 0.0 2.0 0.00 0.00 0.14 60 1011.0